Showing default

COSMOS 2523, 42986

Orbit data source: Space-Track

COSMOS 2523, 42986 is a payload satellite owned by VVKO VKS (CIS) in SSO that was launched on Fri, 23 Jun 2017 UTC via a SOYUZ-2-1V launch vehicle from the Plesetsk Missile And Space Complex (PKMTR). Payloads include a variety of satellites, spacecraft, and rockets equipped with specific instruments for various scientific and technological missions. These include communications satellites like Starlink; space stations such as the ISS; scientific satellites like the Hubble; Earth observation satellites from companies like Planet Labs, Umbra, and HawkEye 360; GPS; miniature CubeSats for education and research; and military/defense satellites.

Loading next visibility...
COSMOS 2523 details
Identifier
42986, 2017-037E
Orbit
SSO
Last TLE update5 hours ago
Origin
Flag of CISVVKO VKS (CIS)
ManufacturerTSKHM?
MissionOperational Defense Technology
Bus & MotorNAPRAZHENIYE?, Unknown motor
Mass~47 kg wet, ~47 kg dry
Launch date (UTC)
2017-06-23 (7 years ago)
Launch vehicle
SOYUZ-2-1V
Launch site
Plesetsk Missile And Space Complex (PKMTR)
Object type
Payload
Rocket body
Debris
Shape & HBRBox, 0.4 m
Radar Cross Section0.100 m², Medium (>0.1 m² and < 1m²)

Expand to show TLE details & history

TLE from 5 hours ago
0 COSMOS 2523
1 42986U 17037E   24337.15492937  .00005429  00000-0  51326-3 0  9996
2 42986  97.5390   3.2824 0069866 313.4372  46.1046 14.92232380385046
Epoch: 2024-12-02T03:43Z
Definitive object data (Epoch: 2024-12-02T03:43:05.897Z)
Latitude-0.00011°
Longitude-123.97501°
Altitude560.437 km
Speed7.599 km/s
True Right ascension00h 13m 07s
True Declination0° 00' 00"
Sunlit
Object was in daylight at TLE epoch
Visualization TLE readout
Latitude5.19915°
Longitude-124.46776°
Altitude563.681 km
Speed7.596 km/s
Apparent Right ascension21h 52m 59s
Apparent Declination-21° 45' 30"
Sunlit
Object is in full shadow
Visualization observer readout
Local Sidereal Time06:20:24
Azimuth275.62° WNW
Elevation-41.691°
Doppler factor1
Orbital elements
Apogee altitude636.654 km
Perigee altitude539.315 km
Semi-major axis6,966.122 km
Eccentricity0.0069866
Inclination97.539°
RAAN3.2824°
Arg. of periapsis313.4372°
True anomaly46.68503°
Mean anomaly46.1046°
Eccentric anomaly46.39446°
Mean motion3.73299 °/min
BSTAR0.00051326
Orbital period96.44 mins
Loading maneuver chart data...
Loading historical data...
Loading historical data...
Loading historical data...
Loading historical data...
Loading historical data...
Loading historical data...
Loading historical data...

COSMOS 2523 Visibility forecast

Observer location: undefined°, undefined

Span
Click to sort rows by Start time (UTC) header in descending order
Start Az.
Max El. time (UTC)
Max El. Az.
Max El.
End time (UTC)
End Az.
6 mins2024-12-02 13:57:09.638Z42.688° NE2024-12-02 14:00:09.638Z87.677° E21.637°2024-12-02 14:03:09.638Z139.947° SSE
5 mins2024-12-02 15:34:09.638Z330.234° NNW2024-12-02 15:36:09.638Z285.513° WNW26.67°2024-12-02 15:39:09.638Z233.977° WSW
6 mins2024-12-03 02:23:09.638Z197.773° SSW2024-12-03 02:25:09.638Z247.979° W35.687°2024-12-03 02:29:09.638Z334.393° NNW
|